Location: Unspecified
(0.0000°N, 0.0000°E)
Time: 08:22:41
(UTC+00:00)

Hubble Space Telescope - Pass Details

Date: 25 April 2017
Orbit: 537 x 541 km, 28.5° (Epoch: 20 October)

Event Time Altitude Azimuth Distance (km) Brightness Sun altitude
Rises 20:02:19 0° 319° (NW) 2,676 5.1 -30.2°
Reaches altitude 10° 20:04:50 10° 331° (NNW) 1,787 3.9 -30.8°
Enters shadow 20:05:35 14° 338° (NNW) 1,555 3.5 -30.9°
